Location: Bayshore Village Mobile Home Park
(26.6945°N, 81.8642°W)
Time: 01:38:17
(UTC+00:00)

Hubble Space Telescope - Pass Details

Date: 24 October 2021
Orbit: 534 x 538 km, 28.5° (Epoch: 07 December)

Event Time Altitude Azimuth Distance (km) Brightness Sun altitude
Rises 00:19:04 0° 207° (SSW) 2,654 4.7 -20.2°
Reaches altitude 10° 00:22:31 10° 176° (S) 1,767 3.4 -21.0°
Enters shadow 00:23:09 11° 168° (SSE) 1,682 3.2 -21.1°
